Baker, OR

1:03 AM PDT on October 21, 2017 (GMT -0700)
Baker City Municipal

Weather History for KBKE - April, 2013

Change the Weather History Date:

Saturday, April 13, 2013

  Actual Average Record
Temperature  
Mean Temperature 36 °F 43 °F  
Max Temperature 48 °F 57 °F 82 °F (1962)
Min Temperature 23 °F 29 °F 12 °F (1968)
Degree Days  
Heating Degree Days 29 22  
Month to date heating degree days 276 301  
Since 1 July heating degree days 6497 6669  
Cooling Degree Days 0 0  
Month to date cooling degree days 0 0  
Year to date cooling degree days 0 0  
Moisture  
Dew Point 21 °F    
Average Humidity 51    
Maximum Humidity 76    
Minimum Humidity 25    
Precipitation  
Precipitation T in 0.03 in 0.58 in (1952)
Month to date precipitation 0.31 0.33  
Year to date precipitation 1.89 2.53  
Sea Level Pressure  
Sea Level Pressure 29.79 in    
Wind  
Wind Speed 17 mph (NW)    
Max Wind Speed 33 mph    
Max Gust Speed 41 mph    
Visibility 10 miles    
Events Rain    
T = Trace of Precipitation, MM = Missing Value Source: NWS Daily Summary

Daily Weather History Graph

Daily Weather History Graph

Search for Another Location

Airport or City:

Trip Planner

Search our weather history database for the weather conditions in past years. The results will help you decide how hot, cold, wet, or windy it might be!

Date:

Astronomy

Apr. 13, 2013 Rise Set
Actual Time 6:09 AM PDT 7:34 PM PDT
Civil Twilight 5:39 AM PDT 8:04 PM PDT
Nautical Twilight 5:02 AM PDT 8:41 PM PDT
Astronomical Twilight 4:23 AM PDT 9:21 PM PDT
Moon 7:57 AM PDT (4/13) 11:09 PM PDT (4/13)
Length of Visible Light 14h 25m
Length of Day
13h 24m
Waxing Crescent, 11% of the Moon is Illuminated
Apr 13
Waxing Crescent
Apr 18
First Quarter
Apr 25
Full
May 2
Last Quarter
May 9
New

Hourly Weather History & Observations

Time (PDT) Temp. Windchill Dew Point Humidity Pressure Visibility Wind Dir Wind Speed Gust Speed Precip Events Conditions
12:53 AM 46.0 °F 39.3 °F 35.1 °F 66% 29.65 in 10.0 mi North 16.1 mph - N/A   Overcast
1:53 AM 44.1 °F 37.7 °F 35.1 °F 71% 29.65 in 10.0 mi NNW 12.7 mph 25.3 mph 0.00 in Rain Light Rain
2:53 AM 42.1 °F 34.9 °F 35.1 °F 76% 29.65 in 10.0 mi NNW 13.8 mph - 0.00 in Rain Light Rain
3:20 AM 42.8 °F 35.1 °F 33.8 °F 70% 29.66 in 10.0 mi North 16.1 mph - 0.00 in Rain Light Rain
3:53 AM 43.0 °F 34.0 °F 33.1 °F 68% 29.64 in 10.0 mi NNW 21.9 mph 25.3 mph 0.00 in   Overcast
4:03 AM 42.8 °F 35.4 °F 33.8 °F 70% 29.66 in 10.0 mi NNW 15.0 mph - N/A   Overcast
4:53 AM 39.9 °F 32.9 °F 30.0 °F 68% 29.66 in 10.0 mi WNW 11.5 mph - N/A   Partly Cloudy
5:53 AM 39.0 °F 29.0 °F 21.0 °F 49% 29.66 in 10.0 mi NW 20.7 mph 31.1 mph N/A   Clear
6:53 AM 34.0 °F 21.3 °F 27.0 °F 75% 29.75 in 10.0 mi North 25.3 mph 33.4 mph N/A   Scattered Clouds
7:53 AM 37.0 °F 24.5 °F 19.9 °F 50% 29.77 in 10.0 mi NW 29.9 mph 38.0 mph N/A   Clear
8:53 AM 39.0 °F 29.6 °F 21.0 °F 49% 29.79 in 10.0 mi NNW 18.4 mph 25.3 mph N/A   Mostly Cloudy
9:53 AM 37.9 °F 27.3 °F 25.0 °F 60% 29.82 in 10.0 mi NNW 21.9 mph 29.9 mph N/A   Scattered Clouds
10:53 AM 41.0 °F 30.2 °F 14.0 °F 33% 29.80 in 10.0 mi WNW 27.6 mph 36.8 mph N/A   Clear
11:53 AM 43.0 °F 33.3 °F 14.0 °F 31% 29.81 in 10.0 mi NW 25.3 mph 35.7 mph N/A   Scattered Clouds
12:53 PM 44.1 °F 35.2 °F 12.9 °F 28% 29.82 in 10.0 mi NW 23.0 mph 33.4 mph N/A   Clear
1:53 PM 46.9 °F - 12.9 °F 25% 29.82 in 10.0 mi NW 21.9 mph 31.1 mph N/A   Partly Cloudy
2:53 PM 46.9 °F - 12.0 °F 24% 29.83 in 10.0 mi WNW 20.7 mph 25.3 mph N/A   Scattered Clouds
3:53 PM 42.1 °F 33.6 °F 12.9 °F 31% 29.84 in 10.0 mi NNW 18.4 mph 32.2 mph N/A   Mostly Cloudy
4:42 PM 46.4 °F 38.1 °F 12.2 °F 25% 29.83 in 10.0 mi WNW 24.2 mph 28.8 mph N/A   Scattered Clouds
4:53 PM 45.0 °F 37.1 °F 12.9 °F 27% 29.85 in 10.0 mi WNW 19.6 mph 31.1 mph N/A   Partly Cloudy
5:53 PM 43.0 °F 36.0 °F 14.0 °F 31% 29.87 in 10.0 mi WNW 13.8 mph - N/A   Clear
6:53 PM 39.9 °F 31.4 °F 12.0 °F 32% 29.90 in 10.0 mi WNW 16.1 mph 26.5 mph N/A   Clear
7:53 PM 33.1 °F 27.7 °F 16.0 °F 50% 29.92 in 10.0 mi NW 5.8 mph - N/A   Clear
8:53 PM 33.1 °F 24.4 °F 16.0 °F 50% 29.94 in 10.0 mi NNW 11.5 mph - N/A   Clear
9:53 PM 33.1 °F 24.9 °F 19.0 °F 56% 29.95 in 10.0 mi NNW 10.4 mph - N/A   Clear
10:53 PM 32.0 °F - 19.0 °F 59% 29.95 in 10.0 mi Calm Calm - N/A   Partly Cloudy
11:53 PM 25.0 °F 19.3 °F 18.0 °F 75% 29.97 in 10.0 mi East 4.6 mph - N/A   Partly Cloudy